Weather reports worldwide

Advertisment
Rimini, Italy (16149): temperature & dewpoint: 19.03.2019 07:00:00 - 25.03.2019 07:00:00 (CET)Rimini, Italy (16149): wind speed: 19.03.2019 07:00:00 - 25.03.2019 07:00:00 (CET)Rimini, Italy (16149): wind direction: 19.03.2019 07:00:00 - 25.03.2019 07:00:00 (CET)Rimini, Italy (16149): reduced air pressure: 19.03.2019 07:00:00 - 25.03.2019 07:00:00 (CET)Rimini, Italy (16149): visibility: 19.03.2019 07:00:00 - 25.03.2019 07:00:00 (CET)Rimini, Italy (16149): precipitation: 19.03.2019 07:00:00 - 25.03.2019 07:00:00 (CET)
Date & Time tt [°C] td [°C] ff [km/h] ff [kn] dd ppp [hPa] vv [km] rr [mm]
25.03.2019 07:00:00 11,6 3,0 5 3 S 1013,7 10 -
25.03.2019 06:00:00 7,0 1,0 9 5 S - 10 -
25.03.2019 05:00:00 7,0 1,0 4 2 - - 10 -
25.03.2019 04:00:00 9,7 1,3 8 4 S 1014,4 10 0,0
25.03.2019 03:00:00 7,0 3,0 4 2 - - 10 -
25.03.2019 02:00:00 7,0 3,0 8 4 SSW - 10 -
25.03.2019 01:00:00 7,7 4,2 4 2 - 1015,8 7 -
25.03.2019 00:00:00 9,0 4,0 2 1 - - 8 -
24.03.2019 23:00:00 9,0 4,0 2 1 - - 10 -
24.03.2019 22:00:00 12,1 3,8 8 4 S 1017,2 10 0,0
24.03.2019 21:00:00 12,0 4,0 9 5 S - 10 -
24.03.2019 20:00:00 13,0 4,0 4 2 S - 10 -
24.03.2019 19:00:00 14,3 2,9 4 2 SE 1017,9 10 -
24.03.2019 18:00:00 18,0 2,0 8 4 ESE - 10 -
24.03.2019 17:00:00 18,0 3,0 9 5 ENE - 10 -
24.03.2019 16:00:00 18,5 4,3 13 7 E 1018,6 10 0,0
24.03.2019 15:00:00 18,0 6,0 15 8 ENE - 10 -
24.03.2019 14:00:00 19,0 6,0 9 5 NNE - 10 -
24.03.2019 13:00:00 18,1 6,5 11 6 NNE 1021,3 10 -
24.03.2019 12:00:00 18,0 7,0 11 6 N - 10 -
24.03.2019 11:00:00 20,0 4,0 13 7 W - 10 -
24.03.2019 10:00:00 18,1 3,6 16 9 W 1022,8 10 0,0
24.03.2019 09:00:00 16,0 3,0 11 6 WNW - 10 -
24.03.2019 08:00:00 12,0 4,0 5 3 SW - 10 -
24.03.2019 07:00:00 8,7 1,9 9 5 SSW 1022,8 10 -
24.03.2019 06:00:00 6,0 1,0 8 4 SSW - 10 -
24.03.2019 05:00:00 6,0 1,0 4 2 - - 10 -
24.03.2019 04:00:00 6,1 1,2 8 4 SSW 1022,5 10 0,0
24.03.2019 03:00:00 6,0 1,0 5 3 S - 10 -
24.03.2019 02:00:00 6,0 1,0 2 1 - - 10 -
24.03.2019 01:00:00 7,4 1,0 5 3 SSW 1023,4 10 -
24.03.2019 00:00:00 8,0 1,0 8 4 SSW - 10 -
23.03.2019 23:00:00 8,0 1,0 4 2 - - 10 -
23.03.2019 22:00:00 8,8 1,3 4 2 SSW 1023,9 10 0,0
23.03.2019 21:00:00 10,0 2,0 5 3 SSW - 10 -
23.03.2019 20:00:00 11,0 1,0 8 4 S - 10 -
23.03.2019 19:00:00 12,7 0,9 0 0 N 1023,3 10 -
23.03.2019 18:00:00 16,0 1,0 4 2 NNE - 10 -
23.03.2019 17:00:00 17,0 1,0 5 3 NE - 10 -
23.03.2019 16:00:00 16,4 2,9 8 4 N 1023,8 10 0,0
23.03.2019 15:00:00 16,0 5,0 11 6 NNE - 10 -
23.03.2019 14:00:00 16,0 5,0 13 7 N - 10 -
23.03.2019 13:00:00 15,9 5,5 15 8 N 1025,3 10 -
23.03.2019 12:00:00 15,0 5,0 15 8 N - 10 -
23.03.2019 11:00:00 17,0 1,0 21 11 WNW - 10 -
23.03.2019 10:00:00 15,6 0,7 24 13 WNW 1025,7 10 0,0
23.03.2019 09:00:00 14,0 1,0 22 12 W - 10 -
23.03.2019 08:00:00 12,0 2,0 13 7 W - 10 -
23.03.2019 07:00:00 8,6 1,2 9 5 SW 1025,3 10 -
23.03.2019 06:00:00 6,0 0,0 8 4 SW - 10 -
23.03.2019 05:00:00 7,0 0,0 8 4 SW - 10 -
23.03.2019 04:00:00 7,3 0,4 5 3 SW 1025,6 10 0,0
23.03.2019 03:00:00 7,0 1,0 4 2 SSW - 10 -
23.03.2019 02:00:00 6,0 1,0 8 4 SSW - 10 -
23.03.2019 01:00:00 6,6 1,7 5 3 S 1026,5 10 -
23.03.2019 00:00:00 5,0 2,0 5 3 SSW - 10 -
22.03.2019 23:00:00 6,0 2,0 8 4 S - 10 -
22.03.2019 22:00:00 5,9 1,9 4 2 S 1027,5 10 0,0
22.03.2019 21:00:00 8,0 2,0 2 1 - - 10 -
22.03.2019 20:00:00 9,0 2,0 8 4 S - 10 -
22.03.2019 19:00:00 11,1 0,7 2 1 - 1027,2 10 -
22.03.2019 18:00:00 13,0 1,0 4 2 - - 10 -
22.03.2019 17:00:00 13,0 2,0 8 4 NE - 10 -
22.03.2019 16:00:00 14,1 3,1 9 5 N 1028,0 10 0,0
22.03.2019 15:00:00 14,0 5,0 13 7 N - 10 -
22.03.2019 14:00:00 14,0 6,0 15 8 N - 10 -
22.03.2019 13:00:00 14,0 5,4 16 9 N 1030,1 10 -
22.03.2019 12:00:00 15,0 3,0 11 6 NNW - 10 -
22.03.2019 11:00:00 14,0 0,0 21 11 W - 10 -
22.03.2019 10:00:00 13,1 0,8 24 13 W 1030,9 10 0,0
22.03.2019 09:00:00 11,0 0,0 22 12 W - 10 -
22.03.2019 08:00:00 10,0 0,0 16 9 W - 10 -
22.03.2019 07:00:00 6,0 -0,3 4 2 - 1030,3 10 -
22.03.2019 06:00:00 4,0 -1,0 8 4 WSW - 10 -
22.03.2019 05:00:00 6,0 -1,0 8 4 WSW - 10 -
22.03.2019 04:00:00 4,0 -0,8 5 3 SSW 1030,0 10 0,0
22.03.2019 03:00:00 6,0 -1,0 9 5 W - 10 -
22.03.2019 02:00:00 7,0 -1,0 9 5 WSW - 10 -
22.03.2019 01:00:00 5,3 -0,5 5 3 SW 1030,7 10 -
22.03.2019 00:00:00 4,0 0,0 2 1 SW - 10 -
21.03.2019 23:00:00 5,0 0,0 4 2 - - 10 -
21.03.2019 22:00:00 5,6 0,3 5 3 S 1030,6 10 0,0
21.03.2019 21:00:00 7,0 1,0 8 4 S - 10 -
21.03.2019 20:00:00 8,0 1,0 5 3 SSW - 10 -
21.03.2019 19:00:00 9,1 1,2 4 2 N 1030,1 10 -
21.03.2019 18:00:00 12,0 1,0 5 3 N - 10 -
21.03.2019 17:00:00 13,0 0,0 5 3 N - 10 -
21.03.2019 16:00:00 12,5 2,3 8 4 N 1030,6 10 0,0
21.03.2019 15:00:00 13,0 0,0 8 4 NNW - 10 -
21.03.2019 14:00:00 15,0 0,0 5 3 - - 10 -
21.03.2019 13:00:00 12,4 0,6 15 8 NNW 1032,4 10 -
21.03.2019 12:00:00 12,0 1,0 16 9 NNW - 10 -
21.03.2019 11:00:00 12,0 2,0 16 9 NW - 10 -
21.03.2019 10:00:00 10,9 1,4 24 13 W 1032,6 10 0,0
21.03.2019 09:00:00 9,0 1,0 22 12 W - 10 -
21.03.2019 08:00:00 6,0 1,0 26 14 W - 10 -
21.03.2019 07:00:00 4,6 0,4 18 10 WNW 1031,5 10 -
21.03.2019 06:00:00 4,0 0,0 21 11 WNW - 10 -
21.03.2019 05:00:00 4,0 0,0 18 10 WNW - 10 -
21.03.2019 04:00:00 4,1 -0,1 16 9 WNW 1030,4 10 0,0
21.03.2019 03:00:00 5,0 0,0 16 9 WNW - 10 -
21.03.2019 02:00:00 6,0 1,0 15 8 WNW - 10 -
21.03.2019 01:00:00 6,1 1,4 15 8 WNW 1030,6 10 -
21.03.2019 00:00:00 6,0 1,0 13 7 WNW - 10 -
20.03.2019 23:00:00 7,0 0,0 9 5 WNW - 10 -
20.03.2019 22:00:00 5,7 -0,8 9 5 WNW 1030,2 10 0,0
20.03.2019 21:00:00 6,0 -1,0 9 5 WSW - 10 -
20.03.2019 20:00:00 7,0 -1,0 9 5 W - 10 -
20.03.2019 19:00:00 9,1 -1,7 9 5 NW 1029,6 10 -
20.03.2019 18:00:00 10,0 0,0 13 7 NNW - 10 -
20.03.2019 17:00:00 11,0 -1,0 13 7 NNW - 10 -
20.03.2019 16:00:00 11,7 -0,6 15 8 N 1029,1 10 0,0
20.03.2019 15:00:00 12,0 -1,0 18 10 NNE - 10 -
20.03.2019 14:00:00 12,0 0,0 22 12 NNE - 10 -
20.03.2019 13:00:00 11,8 -0,2 22 12 NNE 1030,2 10 -
20.03.2019 12:00:00 12,0 2,0 24 13 NNE - 10 -
20.03.2019 11:00:00 12,0 2,0 26 14 NNE - 10 -
20.03.2019 10:00:00 11,2 2,5 22 12 NNE 1029,2 10 0,0
20.03.2019 09:00:00 11,0 2,0 26 14 NNE - 10 -
20.03.2019 08:00:00 10,0 2,0 22 12 NNE - 10 -
20.03.2019 07:00:00 10,0 1,0 24 13 NNE - 10 -
20.03.2019 06:00:00 10,0 1,0 24 13 NNE - 10 -
20.03.2019 05:00:00 10,0 2,0 24 13 NNE - 10 -
20.03.2019 04:00:00 9,8 1,8 22 12 NNE 1026,2 10 0,0
20.03.2019 03:00:00 10,0 2,0 26 14 N - 10 -
20.03.2019 02:00:00 10,0 3,0 24 13 N - 10 -
20.03.2019 01:00:00 9,9 2,7 22 12 N 1026,1 10 -
20.03.2019 00:00:00 10,0 2,0 18 10 N - 10 -
19.03.2019 23:00:00 5,0 3,0 13 7 W - 10 -
19.03.2019 22:00:00 4,0 1,4 5 3 SW 1025,5 10 0,0
19.03.2019 21:00:00 8,0 2,0 9 5 NNW - 10 -
19.03.2019 20:00:00 9,0 2,0 13 7 N - 10 -
19.03.2019 19:00:00 9,1 2,0 16 9 NNE 1024,0 10 -
19.03.2019 18:00:00 9,0 2,0 13 7 N - 10 -
19.03.2019 17:00:00 10,0 1,0 16 9 N - 10 -
19.03.2019 16:00:00 9,4 2,2 21 11 NNE 1022,5 10 0,0
19.03.2019 15:00:00 9,0 3,0 21 11 N - 10 -
19.03.2019 14:00:00 9,0 3,0 18 10 N - 10 -
19.03.2019 13:00:00 9,3 2,4 15 8 N 1022,0 10 -
19.03.2019 12:00:00 9,0 3,0 16 9 N - 10 -
19.03.2019 11:00:00 8,0 6,0 16 9 W - 10 -
19.03.2019 10:00:00 7,1 5,3 18 10 W 1021,3 8 0,0
19.03.2019 09:00:00 7,0 5,0 13 7 WNW - 10 -
19.03.2019 08:00:00 7,0 5,0 13 7 W - 10 -
19.03.2019 07:00:00 6,3 4,9 15 8 W 1019,8 10 -

tt = temperature
td = dewpoint
ff = wind speed
dd = wind direction
ppp = reduced air pressure
vv = visibility
rr = precipitation

Next stations